Satellite: NOAA-17
Catalog number: 27453
Epoch time:      12157.92424417
Element set:    0729
Inclination:      098.3366 deg
RA of node:       185.5300 deg
Eccentricity:    0.0011685
Arg of perigee:   184.4672 deg
Mean anomaly:     175.6408 deg
Mean motion:   14.24440495 rev/day
Decay rate:       1.47e-06 rev/day^2
Epoch rev:           51715
Checksum:              315

Satellite: NOAA-18
Catalog number: 28654
Epoch time:      12157.93787712
Element set:    0205
Inclination:      099.0445 deg
RA of node:       115.9321 deg
Eccentricity:    0.0014186
Arg of perigee:   182.9169 deg
Mean anomaly:     177.1942 deg
Mean motion:   14.11658487 rev/day
Decay rate:       4.20e-06 rev/day^2
Epoch rev:           36297
Checksum:              329

Satellite: NOAA-19
Catalog number: 33591
Epoch time:      12157.65968194
Element set:    0396
Inclination:      098.8642 deg
RA of node:       097.5919 deg
Eccentricity:    0.0014998
Arg of perigee:   056.0848 deg
Mean anomaly:     304.1725 deg
Mean motion:   14.11345628 rev/day
Decay rate:       2.83e-06 rev/day^2
Epoch rev:           17138
Checksum:              352

/EX
SB KEPS @ AMSAT  $ORB12158.M
Orbital Elements  12158.MISC

HR AMSAT ORBITAL ELEMENTS FOR MANNED AND MISCELLANEOUS SATELLITES
FROM WA5QGD FORT WORTH,TX June 6, 2012
Send SUBSCRIBE KEPS/UNSUBSCRIBE KEPS to majordomo@amsat.org only
BID: ORB12158.M
TO ALL RADIO AMATEURS BT

Satellite: HUBBLE
Catalog number: 20580
Epoch time:      12157.23442705
Element set:      11
Inclination:      028.4673 deg
RA of node:       221.7732 deg
Eccentricity:    0.0003475
Arg of perigee:   292.5723 deg
Mean anomaly:     067.4532 deg
Mean motion:   15.02529362 rev/day
Decay rate:      1.704e-05 rev/day^2
Epoch rev:            1293
Checksum:              260

Satellite: ISS
Catalog number: 25544
Epoch time:      12158.78670139
Element set:     702
Inclination:      051.6365 deg
RA of node:       174.4085 deg
Eccentricity:    0.0010403
Arg of perigee:   037.9761 deg
Mean anomaly:     316.7829 deg
Mean motion:   15.56181056 rev/day
Decay rate:     1.2336e-04 rev/day^2
Epoch rev:           77638
Checksum:              310

Satellite: CO-58
Catalog number: 28895
Epoch time:      12158.39639028
Element set:     193
Inclination:      097.9128 deg
RA of node:       025.1434 deg
Eccentricity:    0.0017828
Arg of perigee:   180.8233 deg
Mean anomaly:     179.2960 deg
Mean motion:   14.60632449 rev/day
Decay rate:       8.44e-06 rev/day^2
Epoch rev:           35208
Checksum:              338

Satellite: FALCON
Catalog number: 30776
Epoch time:      12158.59312844
Element set:     362
Inclination:      035.4322 deg
RA of node:       341.5425 deg
Eccentricity:    0.0002612
Arg of perigee:   312.0355 deg
Mean anomaly:     048.0148 deg
Mean motion:   15.07494028 rev/day
Decay rate:      3.763e-05 rev/day^2
Epoch rev:           28865
Checksum:              281

Satellite: MAST
Catalog number: 31126
Epoch time:      12157.52531589
Element set:     474
Inclination:      097.8744 deg
RA of node:       169.3094 deg
Eccentricity:    0.0094342
Arg of perigee:   146.4237 deg
Mean anomaly:     214.2981 deg
Mean motion:   14.54155239 rev/day
Decay rate:       6.34e-06 rev/day^2
Epoch rev:           27257
Checksum:              313

Satellite: CAPE1
Catalog number: 31130
Epoch time:      12157.68917654
Element set:    0488
Inclination:      097.8828 deg
RA of node:       165.8530 deg
Eccentricity:    0.0102238
Arg of perigee:   158.8709 deg
Mean anomaly:     201.6729 deg
Mean motion:   14.52932342 rev/day
Decay rate:       6.67e-06 rev/day^2
Epoch rev:           27210
Checksum:              317

Satellite: COMPASS
Catalog number: 32787
Epoch time:      12157.67411647
Element set:    0322
Inclination:      097.8003 deg
RA of node:       219.2629 deg
Eccentricity:    0.0016285
Arg of perigee:   097.5606 deg
Mean anomaly:     262.7482 deg
Mean motion:   14.83972279 rev/day
Decay rate:      2.617e-05 rev/day^2
Epoch rev:           22210
Checksum:              313

Satellite: AAUSAT2
Catalog number: 32788
Epoch time:      12158.38779729
Element set:     312
Inclination:      097.8018 deg
RA of node:       220.3363 deg
Eccentricity:    0.0015909
Arg of perigee:   095.4485 deg
Mean anomaly:     264.8568 deg
Mean motion:   14.84295249 rev/day
Decay rate:      2.700e-05 rev/day^2
Epoch rev:           22223
Checksum:              331

Satellite: DO-64
Catalog number: 32789
Epoch time:      12157.90737632
Element set:     327
Inclination:      097.8140 deg
RA of node:       221.8449 deg
Eccentricity:    0.0015930
Arg of perigee:   094.4852 deg
Mean anomaly:     265.8171 deg
Mean motion:   14.85757920 rev/day
Decay rate:      4.135e-05 rev/day^2
Epoch rev:           22220
Checksum:              321

Satellite: CO-66
Catalog number: 32791
Epoch time:      12157.65919571
Element set:    0313
Inclination:      097.8020 deg
RA of node:       218.9999 deg
Eccentricity:    0.0016830
Arg of perigee:   097.9353 deg
Mean anomaly:     262.3821 deg
Mean motion:   14.83392492 rev/day
Decay rate:      1.765e-05 rev/day^2
Epoch rev:           22203
Checksum:              333

